Theta_e
336 335 335 331 330 333 331 333 337 335 335 332 331 331 327 325 321 319 320 321 321 324 326 323 326 329 329 328 328 326 324 325 325 325 330 331 328 317 314 314 316 316 315 317 315 313 313 313 313 317 319 319 319 319 316 314 313 312 315 317 318 316 314 312 311 314 317 318 317 316 314 310 309 309
337 334 331 330 331 333 333 335 338 337 336 335 332 331 330 330 322 323 318 320 324 323 327 327 324 327 327 327 327 323 323 323 322 323 326 329 330 315 313 313 311 311 313 312 310 309 310 313 316 318 318 318 316 314 313 312 311 312 315 318 319 317 316 313 313 314 315 315 315 314 312 311 311 310
333 331 331 333 332 333 335 334 336 337 337 335 333 330 331 330 327 327 322 321 323 328 324 325 327 325 327 326 325 321 323 323 319 325 326 326 320 315 317 312 311 312 311 309 309 310 310 311 312 315 316 317 316 314 314 313 312 314 316 315 315 316 316 316 314 316 317 317 316 316 314 311 311 310
333 332 332 333 333 334 333 330 332 333 335 335 332 330 331 333 331 331 327 322 321 328 328 326 327 326 327 324 323 323 323 322 318 323 323 328 318 324 324 312 311 311 310 309 310 314 311 308 311 313 314 315 316 315 315 313 313 314 312 311 311 311 313 314 314 315 316 316 316 316 316 314 312 311
334 333 332 333 334 336 333 329 329 331 334 335 333 332 331 331 330 330 328 323 321 326 331 328 325 327 326 322 323 320 322 324 320 318 322 326 324 319 319 325 312 310 309 308 308 308 308 307 312 311 311 313 313 313 311 310 310 308 308 308 309 309 311 312 312 312 313 314 315 316 316 316 315 313
333 334 333 332 334 335 333 330 331 332 334 332 331 330 331 329 331 332 329 328 323 322 325 327 327 326 326 319 322 321 322 323 320 316 320 322 320 316 318 321 324 309 310 308 307 307 306 306 307 308 305 306 307 308 307 306 306 306 305 302 305 308 309 312 309 309 311 312 313 312 313 314 315 314
332 333 333 333 334 336 335 334 333 335 333 331 327 329 330 329 330 331 330 327 325 324 322 325 325 326 323 320 320 321 324 324 320 316 317 319 317 316 318 319 322 309 309 307 306 306 306 305 305 305 305 305 304 304 304 304 304 303 303 301 302 304 306 306 307 308 310 312 311 311 311 312 313 313
331 332 333 333 334 335 333 333 333 333 331 331 331 330 329 331 331 332 332 330 327 323 320 322 322 322 321 320 322 320 322 323 321 318 317 317 316 315 316 316 317 315 308 307 307 306 306 305 305 304 304 304 303 303 303 303 303 302 301 302 302 302 303 303 302 304 306 307 309 310 310 311 313 314
332 332 332 333 333 334 332 334 332 332 332 331 332 332 329 329 331 330 328 328 328 325 321 320 321 321 321 319 321 320 319 321 320 318 317 316 315 316 315 314 313 313 307 308 306 306 305 305 304 304 304 304 303 303 302 302 302 301 301 301 301 301 301 303 303 304 304 304 305 307 308 309 311 313
333 333 333 333 333 333 332 333 334 333 332 331 331 330 328 328 330 329 329 327 325 324 322 320 317 321 316 317 319 320 319 317 315 316 316 316 316 316 316 315 314 318 317 318 316 308 306 304 304 305 304 303 303 302 302 302 301 301 301 300 301 301 300 301 302 302 301 302 304 305 306 306 309 311
334 334 334 334 334 333 333 333 333 333 333 332 332 331 332 331 327 328 326 324 324 325 322 320 319 319 319 320 317 317 318 318 317 316 315 314 315 316 317 316 316 316 316 312 307 309 309 309 311 306 303 302 303 303 302 302 301 301 300 299 298 298 298 299 299 301 302 303 303 303 302 302 304 307
335 335 335 334 334 334 334 334 333 333 332 333 333 333 334 332 330 326 326 325 321 322 321 320 319 317 316 317 318 316 317 316 316 316 315 313 314 315 317 318 317 317 316 316 314 309 308 306 307 303 303 303 302 303 302 302 302 301 300 299 299 299 299 298 299 300 301 302 301 300 299 300 302 302
333 334 334 333 333 334 332 324 322 324 326 334 332 334 332 331 330 325 325 318 321 322 320 319 320 317 317 317 317 316 315 314 314 317 317 316 315 314 315 316 318 317 316 316 314 314 313 310 311 311 312 312 308 306 303 307 304 301 300 300 300 300 301 300 301 301 301 302 302 301 300 300 301 300
331 332 333 333 329 325 323 318 314 311 314 319 329 336 332 328 328 328 324 322 322 320 319 319 318 317 316 316 318 318 318 317 317 316 317 315 314 315 315 318 319 318 318 317 315 315 316 317 316 316 315 317 318 319 317 316 314 306 300 300 300 299 299 299 300 300 300 300 300 300 300 300 299 299
330 332 332 333 328 326 322 324 307 308 306 307 308 307 306 310 328 327 324 322 321 319 320 322 321 318 317 317 319 319 318 320 319 317 319 316 315 313 313 312 318 321 319 316 316 316 320 320 317 317 318 320 323 324 322 304 306 302 301 300 300 300 300 300 300 299 299 299 299 298 298 298 299 299
330 331 332 333 333 331 331 331 327 316 306 305 304 298 298 296 294 299 322 326 323 325 321 320 322 321 319 318 319 318 319 320 321 320 320 318 314 314 313 312 314 321 322 319 317 316 322 322 320 320 320 324 328 322 310 304 302 301 300 301 299 300 299 300 300 299 299 298 298 298 298 298 298 298
331 331 331 333 334 331 325 328 330 329 321 299 295 296 297 296 295 295 296 301 328 329 327 324 323 323 321 319 320 322 321 324 323 322 318 319 317 316 314 314 314 319 325 321 318 316 320 323 321 321 327 328 327 323 306 301 301 300 301 300 300 299 300 299 300 299 298 299 299 299 299 299 299 299
333 332 331 331 331 332 330 330 331 330 328 323 319 321 325 321 308 298 298 299 296 309 328 331 327 328 326 324 326 326 327 325 322 321 319 321 320 318 316 325 323 322 320 320 319 317 321 324 324 322 325 326 323 323 308 301 303 302 301 302 301 301 300 300 299 298 298 297 297 297 298 298 298 298
334 333 333 333 331 331 329 330 328 330 327 326 326 325 323 320 319 320 320 322 323 324 325 326 325 322 323 325 325 325 324 324 324 324 322 322 322 324 325 324 324 322 323 324 321 314 319 324 321 320 321 321 318 318 303 303 302 302 300 300 300 299 299 298 297 297 297 297 297 297 296 296 296 296
334 333 333 333 332 331 330 316 308 316 328 327 324 320 317 314 311 307 297 294 299 317 321 319 318 313 306 303 315 313 322 327 327 324 326 325 324 320 316 316 318 319 318 320 320 319 318 320 317 317 317 316 315 314 316 301 302 301 301 300 300 299 299 298 297 296 297 297 297 297 296 296 295 295
332 333 332 333 332 331 331 307 301 303 310 324 320 316 314 312 311 308 305 295 293 292 292 292 292 293 293 294 294 294 294 307 318 321 318 317 318 316 314 317 317 316 315 315 316 315 312 316 314 313 311 312 311 311 312 320 303 303 302 301 300 300 301 299 298 297 297 296 296 296 296 296 296 295
328 317 303 312 330 330 325 296 297 298 313 322 319 317 314 312 310 308 307 306 301 294 294 294 294 294 295 296 296 295 297 298 308 322 317 320 319 320 319 315 315 316 314 310 313 309 309 313 312 310 310 310 310 312 314 315 313 302 302 302 301 301 301 300 298 298 298 298 296 297 295 296 296 307
321 317 308 297 302 322 308 294 296 297 308 323 319 316 314 311 309 308 309 308 307 308 309 310 309 307 304 308 307 304 298 299 305 313 313 313 312 309 309 310 310 309 309 309 311 306 307 308 308 307 304 302 307 311 313 313 312 312 313 313 313 300 302 301 299 298 298 298 298 297 297 296 297 308
316 313 310 301 292 292 293 294 294 293 292 317 319 318 315 312 309 311 313 313 313 311 310 309 309 308 307 307 307 307 306 305 304 304 308 310 311 308 307 308 307 306 308 307 306 304 305 305 303 308 304 301 298 308 310 310 310 310 313 311 310 304 303 301 301 297 298 298 296 296 297 297 296 305
312 308 304 299 292 291 291 291 291 292 292 302 320 319 317 315 312 308 310 307 302 309 307 307 306 306 305 304 303 303 303 303 304 303 304 305 306 306 305 304 304 304 303 302 298 306 304 306 304 307 306 306 305 305 307 308 309 309 310 310 309 309 310 310 306 311 298 295 296 295 294 296 296 299
301 301 301 299 293 290 291 291 292 292 295 297 311 306 296 295 297 310 310 311 310 309 308 307 306 305 303 301 300 302 303 304 303 305 304 304 305 305 305 306 305 304 305 304 299 307 305 306 308 304 305 304 305 304 303 305 309 309 309 309 309 308 309 308 307 307 308 308 307 303 300 295 297 294
297 299 298 295 291 290 290 291 291 293 294 297 300 292 293 294 295 301 310 309 310 308 308 307 306 304 304 303 302 302 302 303 304 304 304 305 305 305 304 305 307 307 306 307 306 308 308 306 306 305 303 304 303 302 304 303 304 307 307 307 307 308 308 307 305 305 306 305 306 293 294 293 293 294
295 295 294 292 290 290 290 290 290 290 292 295 291 292 293 295 298 306 306 305 305 304 302 303 302 302 302 302 301 301 302 302 303 305 306 307 307 306 306 305 304 306 306 306 306 306 306 306 306 307 306 303 302 301 300 304 303 303 303 305 306 306 306 305 305 305 304 305 306 306 305 304 305 304
293 290 289 290 290 291 291 291 291 291 291 290 290 291 293 298 304 304 304 303 303 300 298 297 298 297 298 299 300 302 302 303 304 304 304 305 304 305 305 305 305 305 306 307 306 305 306 306 305 306 306 305 303 303 302 301 302 303 302 301 301 303 304 306 305 304 303 304 304 303 303 303 302 301
290 290 290 290 291 291 293 295 295 294 294 291 291 292 295 298 298 300 300 301 299 298 297 296 297 297 298 298 300 301 301 301 301 302 302 302 302 304 304 303 303 305 305 305 305 304 305 305 305 305 305 305 303 302 303 301 301 302 300 301 301 302 302 304 304 304 303 302 303 303 303 302 301 299
295 293 293 292 291 291 291 291 291 293 293 294 294 295 296 295 295 295 296 296 296 296 296 296 296 297 297 299 299 299 299 299 300 302 301 302 303 304 304 302 301 301 303 304 303 303 304 305 305 304 302 303 303 303 302 302 300 300 300 301 301 298 301 303 303 302 302 302 303 302 302 300 300 300
297 297 293 293 294 295 295 295 295 295 294 294 293 294 294 294 295 294 294 294 295 295 295 295 296 296 296 295 295 296 297 297 298 300 300 299 299 300 301 299 298 300 300 302 303 303 300 304 304 304 303 302 300 301 302 301 300 300 299 301 300 301 302 300 300 301 302 301 300 299 299 299 299 300
295 294 293 293 293 292 289 290 292 293 292 292 293 292 294 294 295 294 294 294 294 294 294 295 295 295 294 294 295 295 295 295 296 299 299 300 300 301 302 300 301 301 301 301 302 302 303 304 303 303 303 303 302 301 300 298 300 300 299 299 299 299 300 300 300 300 301 299 299 299 298 299 299 299
292 291 290 290 290 290 290 289 288 289 290 289 289 289 289 291 291 291 291 291 292 291 292 293 291 292 292 293 294 294 294 295 296 296 295 299 301 298 299 298 298 299 298 298 299 298 300 302 302 303 303 302 302 301 300 298 297 299 299 299 298 298 299 300 299 300 300 298 298 297 297 298 299 299
290 289 288 288 288 288 289 287 287 288 288 287 287 288 288 290 289 289 290 290 290 290 290 290 290 291 291 291 292 292 292 293 294 296 297 298 299 297 297 296 296 296 297 296 297 298 300 300 301 300 301 300 299 300 297 300 297 297 298 297 298 297 298 299 299 299 299 299 299 295 296 297 297 298
290 290 289 288 287 288 287 287 287 288 288 288 288 288 288 288 288 289 289 290 291 290 290 290 290 291 291 290 291 291 291 291 293 294 294 295 294 295 296 296 296 296 297 297 296 298 298 299 299 297 294 295 294 293 294 295 297 298 296 294 297 297 298 298 299 300 299 298 298 297 293 292 297 298
290 290 290 289 290 289 287 288 288 288 288 288 288 289 288 287 288 289 289 289 291 290 290 290 290 291 291 291 291 290 291 291 291 293 292 295 296 295 293 293 293 296 296 297 298 298 299 297 297 297 294 293 292 291 292 293 293 296 299 295 293 297 297 297 298 296 297 298 297 297 295 292 293 298
292 293 292 291 291 290 288 288 288 288 288 289 289 289 290 291 291 291 292 291 290 290 290 291 290 290 291 291 292 292 292 292 292 292 292 292 292 293 293 293 294 294 296 296 298 297 297 297 295 295 294 291 291 291 291 292 293 294 294 297 293 293 297 295 294 294 295 298 297 297 297 295 295 298
295 293 293 292 292 291 290 290 290 290 291 291 290 290 290 290 291 291 291 291 292 291 292 291 291 291 290 291 291 292 292 292 291 292 292 292 294 293 292 293 292 294 294 293 296 297 297 296 296 296 295 293 290 291 292 291 291 294 293 291 297 295 295 293 293 294 296 295 297 298 297 299 296 288
295 294 293 293 292 292 292 292 291 292 291 291 292 292 291 290 291 291 290 291 291 290 290 290 290 291 291 291 291 292 291 291 292 292 292 292 292 291 292 291 292 293 292 291 292 294 296 295 296 296 296 295 294 295 295 295 295 296 295 293 290 294 294 294 294 292 293 296 297 293 293 296 295 296
294 293 293 293 293 292 292 292 292 292 292 292 292 291 292 292 292 291 291 291 290 291 291 290 290 290 291 291 291 292 291 291 291 292 292 291 290 291 290 290 292 292 292 291 293 293 295 297 297 288 293 297 295 295 295 293 291 293 293 295 289 288 289 291 297 296 293 296 296 293 292 292 292 292
295 294 295 295 294 293 293 292 292 292 292 292 291 292 292 290 290 289 290 289 291 290 291 291 291 291 291 292 292 291 291 291 291 291 291 292 292 291 290 291 291 292 291 291 291 292 296 299 296 296 299 295 295 293 291 291 290 291 292 294 295 290 288 288 288 289 297 294 294 292 293 293 293 291
294 295 294 294 294 294 294 293 293 293 292 292 292 292 290 290 291 290 291 290 291 291 291 291 291 291 291 292 292 291 291 290 290 290 290 290 291 291 291 291 291 292 293 292 294 293 294 295 297 295 294 295 293 293 291 291 292 292 292 293 294 296 295 289 290 288 288 286 288 291 295 293 292 289
294 294 294 294 294 294 294 294 294 294 293 291 292 291 291 290 290 290 291 291 291 291 291 291 291 291 291 291 291 291 291 291 291 290 290 290 290 290 291 291 291 291 293 293 293 294 294 294 294 295 293 293 293 293 291 291 292 292 293 293 293 293 294 296 295 290 289 289 288 287 284 287 289 288
293 293 293 294 293 294 294 294 294 294 294 292 292 292 291 291 290 291 291 290 291 291 291 291 291 291 292 292 291 290 291 290 291 291 291 291 291 291 291 291 292 291 292 292 292 292 293 293 294 294 293 293 293 293 292 292 292 292 292 292 291 293 294 294 294 294 294 295 290 285 287 286 288 288
Wind_Speed
9 8 8 7 9 10 11 9 6 5 4 5 7 8 9 8 9 7 8 10 8 11 11 9 9 9 9 8 8 8 8 12 12 9 6 7 8 10 10 10 10 9 8 7 6 5 5 6 7 8 7 7 6 5 5 6 5 5 4 3 3 2 2 1 1 1 1 3 2 4 4 4 4 4
8 7 7 8 8 7 7 7 7 6 6 4 4 6 8 8 9 9 9 8 8 9 10 8 9 10 10 8 8 8 7 16 12 9 7 6 7 15 11 11 10 10 9 8 7 7 6 6 7 8 7 6 6 6 6 6 6 6 6 6 5 4 3 3 4 4 4 3 3 6 6 6 6 6
7 8 10 9 7 6 4 4 5 6 6 5 4 7 8 4 7 7 7 4 6 7 9 8 8 11 11 9 9 8 7 11 10 8 7 7 15 16 10 11 10 10 10 8 7 7 7 7 7 8 8 7 7 6 7 7 7 7 7 6 5 5 5 5 6 6 8 8 8 9 8 8 8 8
8 10 10 9 8 7 5 7 8 7 7 6 6 6 7 6 7 3 2 5 4 6 7 9 8 12 10 11 10 9 7 10 10 7 7 9 14 9 8 12 11 10 9 9 8 8 7 7 7 7 7 8 7 7 8 8 8 8 8 7 7 6 7 7 7 8 10 10 11 11 11 11 11 11
9 10 10 9 10 9 8 7 8 8 9 8 7 6 6 10 7 7 4 6 9 7 5 7 8 9 11 10 10 10 8 9 8 8 7 9 7 8 7 10 13 12 11 10 9 9 8 8 8 8 8 8 8 8 9 9 9 9 8 8 8 8 8 9 9 9 10 11 12 12 12 12 12 13
8 8 10 10 9 10 9 11 12 10 8 8 7 8 7 11 9 8 7 8 8 7 6 7 8 9 10 9 10 10 10 9 9 10 7 7 8 8 7 8 10 16 13 12 11 9 9 9 9 9 9 9 9 9 9 9 9 9 9 10 10 10 10 9 11 10 10 11 12 12 12 13 13 13
9 9 10 10 9 8 9 9 9 7 8 7 9 10 12 11 9 10 10 10 8 9 8 7 9 9 10 9 10 11 9 9 10 10 10 8 8 7 8 7 7 18 15 15 12 11 11 10 9 9 9 8 9 9 10 11 11 11 11 11 11 11 11 12 12 12 11 12 13 13 13 13 14 14
9 9 9 10 10 9 9 9 10 9 10 10 9 16 14 10 8 5 4 5 5 7 7 9 9 9 9 9 8 9 9 9 9 9 9 9 8 8 8 8 6 14 18 16 14 13 12 11 10 10 10 10 10 11 12 12 12 12 11 11 11 12 12 12 12 12 12 13 14 14 14 14 14 16
9 9 9 9 10 9 9 10 10 10 12 10 10 9 10 9 9 7 6 5 6 6 7 8 8 9 9 9 8 9 9 9 9 9 9 9 9 9 9 8 6 14 17 16 15 13 13 12 12 12 12 13 13 13 13 13 12 13 12 12 11 11 12 12 12 12 12 13 13 13 15 15 16 18
9 9 10 9 10 10 10 9 10 11 12 11 11 11 11 11 11 8 6 6 10 9 6 7 8 7 9 9 9 9 9 9 9 9 9 9 8 8 8 8 7 7 7 6 8 9 10 13 14 14 14 15 15 14 14 14 14 13 12 12 12 13 13 12 11 12 12 13 13 14 14 15 16 18
9 9 10 10 10 10 10 10 10 10 11 10 12 10 11 4 4 9 6 7 9 8 8 7 8 8 8 8 8 9 10 9 9 9 9 9 8 8 8 8 7 7 8 10 11 10 11 13 13 15 17 16 16 15 15 14 14 13 13 13 13 12 11 11 12 13 13 13 13 14 14 14 15 16
9 9 9 10 10 11 10 10 10 10 10 10 12 10 5 7 5 7 8 3 8 8 8 8 8 8 9 8 8 8 9 9 9 9 9 9 9 9 9 9 8 8 8 8 8 8 7 7 9 10 15 17 17 16 14 14 14 13 12 12 11 11 12 12 12 12 13 13 13 13 14 14 14 14
9 9 8 8 9 9 6 4 6 5 3 9 10 8 6 3 5 6 7 6 3 6 9 10 8 8 9 9 9 9 9 11 10 9 8 8 8 9 8 9 9 8 8 8 8 9 10 10 11 10 10 11 16 14 15 11 14 14 12 11 10 10 10 10 10 10 10 11 12 12 12 13 13 14
9 9 8 8 9 4 4 4 3 3 2 2 3 2 3 4 7 5 10 9 6 2 4 5 7 7 7 9 10 10 10 10 9 9 9 9 8 8 8 7 8 9 8 8 8 8 8 8 8 9 8 6 10 6 9 3 5 5 7 5 5 6 6 7 7 8 8 9 10 10 11 11 12 13
9 9 9 9 9 7 6 6 7 5 3 3 2 4 8 4 4 4 5 8 11 10 9 9 8 7 9 10 9 10 10 9 10 10 9 10 9 9 8 8 7 6 7 7 7 6 6 6 7 7 7 6 4 4 7 9 9 6 5 2 2 3 4 6 7 7 9 9 10 10 11 11 12 12
8 9 8 8 8 9 11 11 8 5 2 1 5 7 8 7 7 5 7 10 9 9 10 11 11 11 10 9 10 10 10 9 9 10 9 10 10 9 10 9 8 6 5 6 6 6 4 3 5 4 3 2 2 7 9 9 5 5 4 5 5 6 6 6 6 7 8 8 9 10 10 11 11 12
8 8 8 8 7 7 9 9 9 9 6 7 8 8 9 8 7 6 3 3 4 9 10 10 11 11 10 10 8 9 10 8 9 9 10 9 9 9 9 10 6 6 4 4 4 6 5 3 4 5 3 2 3 5 8 8 8 5 3 3 3 3 3 3 4 5 6 7 8 8 9 10 11 11
8 8 8 8 7 7 8 10 9 9 9 7 7 6 6 5 6 6 5 2 4 4 6 8 7 3 1 1 3 2 2 6 7 8 8 7 7 7 5 5 7 5 2 3 3 5 5 3 2 2 3 2 2 2 12 10 9 7 6 4 3 2 1 0 2 4 5 7 7 8 9 10 10 11
8 8 8 8 8 8 9 10 9 9 9 9 9 8 7 6 5 4 2 2 4 5 4 2 4 5 5 5 3 0 1 2 3 3 4 5 4 6 7 5 4 4 3 1 4 5 4 4 3 3 2 2 2 4 9 13 10 10 8 8 7 7 5 2 0 2 4 5 6 7 8 9 9 9
7 8 8 8 9 9 9 9 8 8 9 10 10 8 7 7 6 7 5 6 9 6 5 5 4 4 4 5 5 6 3 3 3 4 5 5 7 7 6 6 5 4 4 4 2 1 1 2 2 3 3 0 3 2 7 10 13 11 10 9 9 7 4 5 5 5 6 7 8 9 9 9 10 10
7 4 3 6 8 8 8 12 11 8 10 10 10 9 8 7 7 6 7 12 14 15 16 16 14 12 12 13 14 14 13 9 4 5 5 7 7 7 8 7 6 5 3 4 4 1 2 2 2 2 6 3 3 4 4 9 11 11 10 10 9 6 5 3 3 1 3 5 8 10 9 10 10 12
5 6 11 10 2 8 7 12 11 11 10 9 10 10 11 10 9 8 7 8 9 14 15 15 14 13 14 15 16 16 17 16 11 3 5 4 4 5 2 6 4 4 3 4 4 2 3 1 3 3 4 4 5 4 1 1 4 11 10 11 10 6 3 2 2 1 0 4 8 9 10 11 12 9
4 4 8 13 10 2 12 13 12 8 5 8 9 11 10 10 10 9 10 10 11 10 10 9 9 9 9 9 9 10 16 15 12 8 7 5 4 5 4 4 4 4 4 2 3 3 0 1 1 1 4 4 2 1 1 0 3 3 4 3 2 8 2 3 4 4 5 2 5 5 8 10 12 7
5 5 5 9 12 13 12 11 7 4 8 6 10 10 9 11 11 10 9 8 9 9 9 9 8 9 8 9 10 9 9 8 9 8 7 6 3 4 2 2 4 2 4 1 5 3 2 1 2 1 3 4 2 1 1 1 3 3 3 3 5 1 2 4 6 9 8 9 7 5 5 7 9 8
4 5 6 6 9 12 10 9 10 9 10 4 9 8 8 8 12 11 9 9 9 10 9 8 8 8 8 9 8 7 6 6 6 6 7 7 7 6 3 1 2 5 5 3 6 2 2 1 2 1 3 3 4 4 1 3 2 2 3 4 4 5 6 5 6 2 10 9 9 10 7 4 5 6
8 7 6 5 8 14 12 12 12 13 14 15 10 12 17 17 14 10 10 9 8 8 8 7 7 7 7 7 7 6 5 5 5 5 5 5 6 6 6 6 3 3 5 3 3 2 2 3 1 2 2 3 3 2 3 3 1 2 4 4 5 6 5 6 5 5 8 6 3 5 7 6 7 7
7 7 7 6 12 17 15 14 14 14 16 14 11 15 14 12 11 10 8 7 7 7 7 7 7 7 7 7 6 6 5 5 5 5 5 5 5 6 6 7 7 7 5 5 3 1 2 1 1 2 2 2 3 3 2 2 1 3 3 3 5 5 4 5 5 6 7 6 5 12 10 9 8 8
8 8 8 8 14 18 19 19 19 18 15 11 13 13 12 10 8 8 7 7 7 7 7 7 7 7 6 6 6 6 6 5 5 5 5 6 6 7 6 7 8 7 6 4 3 2 2 1 1 1 2 2 3 3 3 1 1 2 3 4 5 4 6 5 6 6 6 5 7 5 7 6 4 3
9 10 13 14 14 15 17 18 17 16 15 16 14 14 12 8 6 6 6 7 7 8 7 7 7 7 7 7 6 6 5 5 5 6 6 6 7 7 7 8 7 6 3 2 2 2 1 2 2 1 2 1 2 2 3 4 3 3 4 5 4 5 6 4 6 6 6 7 7 8 8 7 6 6
15 14 17 18 16 15 13 12 10 10 11 15 16 16 14 8 7 6 6 6 7 8 7 7 7 7 6 7 6 5 4 4 5 4 5 4 4 4 5 6 5 5 4 3 3 3 3 2 2 2 3 2 1 2 2 3 4 3 3 4 6 6 4 6 6 6 8 8 8 7 6 5 4 5
10 12 12 12 13 12 16 16 14 13 12 12 11 9 9 8 8 7 7 7 7 7 7 7 7 7 6 6 5 5 5 5 5 4 2 3 3 3 4 5 5 5 4 4 4 4 3 1 1 1 3 3 3 2 3 4 5 5 4 5 5 5 6 6 6 6 7 7 7 6 5 5 4 4
7 8 10 12 10 10 10 10 11 11 11 10 8 8 7 7 7 8 9 9 8 7 7 7 7 6 6 6 6 5 5 5 5 4 3 3 3 2 3 3 4 5 5 4 4 4 2 3 2 1 2 3 3 3 4 4 3 3 4 4 4 4 5 5 5 6 6 6 5 5 5 5 5 4
8 9 10 9 9 9 8 8 8 8 8 8 8 9 8 7 7 8 7 7 7 6 6 7 7 6 6 6 6 5 5 5 4 3 3 2 3 3 2 3 3 3 3 3 3 3 2 1 6 4 4 3 3 4 4 4 2 2 3 4 4 4 4 4 5 5 6 5 5 4 4 4 4 4
8 8 8 8 8 7 7 7 7 7 7 7 7 8 8 8 7 7 7 6 6 5 6 6 6 6 5 6 5 5 4 4 4 4 4 3 3 3 4 4 4 3 2 2 3 2 2 1 2 4 4 3 1 4 6 4 3 3 4 4 4 4 4 4 4 4 5 4 5 5 4 5 5 4
6 5 6 5 6 6 6 6 6 5 5 4 5 6 6 6 6 5 6 6 4 4 5 5 5 4 4 5 5 5 4 4 3 3 3 3 4 4 4 4 3 3 2 2 2 2 2 2 2 3 7 7 6 4 8 7 4 5 4 3 4 4 4 4 5 4 5 4 5 4 4 4 4 4
5 4 4 4 4 5 5 4 4 5 5 5 5 4 4 4 4 5 5 4 5 3 4 4 3 3 3 3 3 3 2 2 2 2 2 3 2 3 4 3 3 3 2 2 2 2 2 2 2 2 3 3 3 4 4 5 7 5 4 3 4 4 4 5 5 4 4 5 5 4 3 3 5 5
4 4 5 5 4 4 4 5 4 5 6 5 5 5 5 4 5 5 4 3 5 4 4 3 3 3 3 3 3 3 2 2 2 2 1 2 3 3 3 2 2 2 2 3 2 2 2 2 3 3 3 3 2 1 5 2 6 8 5 4 3 4 5 5 5 4 4 4 4 4 3 3 3 6
3 4 4 4 4 4 5 5 4 5 4 5 5 5 6 6 6 6 4 4 4 3 3 3 3 3 2 2 3 3 2 2 2 2 2 2 2 2 2 2 2 2 2 2 2 2 2 2 2 3 3 2 2 2 1 2 3 4 6 4 2 3 4 3 3 3 3 3 3 3 4 3 4 5
4 4 4 4 4 4 4 4 4 5 5 5 5 5 5 5 5 4 3 3 4 3 3 3 3 3 3 2 2 2 2 3 3 3 2 2 3 2 2 2 2 3 3 2 2 2 2 2 2 2 2 2 2 2 2 2 2 2 4 4 4 3 3 3 3 4 3 2 2 0 2 4 7 7
4 4 4 4 4 4 5 5 5 5 6 6 6 6 5 4 4 4 3 3 3 3 3 3 3 3 3 3 4 4 4 3 3 3 3 3 2 2 2 2 2 1 2 2 2 2 3 3 4 5 3 2 1 1 2 2 0 1 3 3 2 2 3 3 3 3 3 4 3 1 1 3 1 4
4 4 4 4 4 5 5 5 5 6 6 6 6 5 5 5 4 3 3 3 4 4 4 3 3 3 3 2 2 3 3 3 3 2 3 3 3 3 2 4 2 2 2 2 3 3 3 4 3 3 4 1 0 2 3 0 2 3 3 2 5 2 1 5 4 4 3 5 4 2 3 3 2 1
4 4 4 4 5 5 6 6 6 6 5 5 5 3 5 3 3 2 3 3 3 4 4 4 4 3 3 3 3 3 3 3 3 2 2 1 2 2 1 2 3 2 1 2 2 2 3 2 7 8 5 1 0 1 2 2 2 2 2 1 3 6 6 4 2 4 5 5 5 4 3 2 3 2
3 3 4 5 5 6 7 7 7 6 6 6 4 5 4 5 4 3 4 3 3 3 4 3 3 3 3 2 2 3 3 3 2 2 2 2 2 2 2 3 2 0 1 2 2 2 2 3 3 1 1 1 2 1 2 2 1 1 1 2 2 3 4 5 4 3 4 4 4 3 4 4 4 2
4 3 3 5 6 7 7 7 6 6 6 4 3 3 3 3 3 3 3 3 3 3 3 3 3 3 3 2 2 2 2 2 2 2 2 2 2 2 2 1 1 2 2 2 2 2 3 3 2 2 3 2 2 1 1 1 1 2 2 2 1 2 1 2 4 4 4 3 1 1 3 3 2 0
3 3 4 5 6 6 5 6 6 6 5 4 3 3 3 3 3 3 3 3 3 3 2 2 2 2 1 2 2 3 2 1 1 1 1 1 1 1 1 1 1 2 2 2 2 2 3 2 2 2 2 2 1 2 2 2 2 2 2 1 1 2 2 2 2 1 1 2 2 2 2 0 3 3
Wind_Direction
225 227 222 233 231 207 209 213 217 204 192 227 264 233 215 203 199 155 198 198 189 185 184 180 177 181 169 174 166 169 189 136 160 185 198 163 171 163 169 167 166 170 169 164 163 162 149 145 147 149 152 150 151 156 167 168 172 180 199 231 249 231 198 190 182 133 332 310 283 151 160 167 185 206
213 214 229 225 228 238 231 214 216 215 219 223 268 290 242 214 215 167 188 200 190 182 184 186 173 181 171 170 168 173 187 136 185 181 190 180 166 152 172 170 172 174 173 168 165 167 165 164 163 163 164 167 170 177 187 191 193 203 209 226 237 236 240 234 226 223 221 221 186 183 193 198 209 223
212 221 226 224 226 217 235 234 208 223 224 229 219 251 262 195 234 237 188 155 198 197 180 198 177 173 171 172 168 173 168 151 185 194 174 197 124 155 167 177 175 180 180 173 174 173 175 180 183 178 181 186 187 197 203 206 214 213 216 223 231 236 240 240 242 242 238 235 228 220 215 218 222 230
214 218 225 219 217 205 189 221 220 215 217 217 226 242 261 257 224 208 156 171 159 260 182 191 175 173 173 172 171 170 170 140 187 189 189 114 134 174 173 179 179 184 186 184 184 186 179 191 196 197 199 198 202 209 213 217 220 220 220 222 226 235 242 244 241 245 250 249 246 244 239 230 230 233
219 222 219 216 212 212 195 212 219 214 208 205 218 237 243 236 218 212 149 221 161 185 188 184 186 169 171 177 177 175 168 151 182 206 184 157 187 190 190 175 179 184 187 192 193 190 187 192 200 203 205 207 210 213 219 222 224 227 226 228 230 232 236 239 243 245 250 252 252 251 248 243 236 233
216 214 221 217 209 211 202 217 206 200 205 203 210 234 240 234 206 213 195 208 154 172 180 187 185 166 180 182 185 181 177 169 177 190 188 178 191 194 201 185 175 182 187 193 194 193 196 197 205 207 208 215 215 220 225 227 229 230 229 230 234 237 239 239 243 245 245 248 251 250 248 246 243 239
208 212 219 219 209 203 211 209 227 182 199 187 196 218 226 224 214 206 206 224 177 170 188 182 184 173 183 200 181 189 178 181 181 189 191 188 191 200 197 208 174 175 186 190 193 198 197 203 208 211 218 219 220 224 228 230 230 229 230 233 236 241 245 247 247 246 246 246 250 251 251 250 247 243
207 212 216 220 213 204 209 212 213 191 211 207 202 211 210 204 209 203 233 195 251 195 174 184 190 180 177 201 189 187 182 180 188 194 191 193 194 195 198 206 209 168 183 187 194 197 200 203 207 212 219 222 224 226 228 232 232 233 233 235 236 240 244 248 251 253 254 254 255 254 254 253 250 249
209 208 215 217 215 209 211 211 215 213 212 205 217 212 223 189 198 195 199 206 254 234 180 184 199 172 183 189 198 185 185 182 193 197 199 197 196 197 203 197 189 145 177 184 193 196 202 206 209 214 217 223 227 228 230 232 234 235 235 236 241 246 250 251 252 254 255 257 258 259 261 262 261 259
211 212 213 217 216 211 212 216 213 213 210 219 222 222 222 212 186 168 168 213 204 224 204 175 189 179 182 183 191 190 193 191 194 194 201 203 200 198 198 202 198 170 168 190 188 199 208 211 216 216 218 225 227 230 230 231 234 237 240 241 243 245 248 253 259 260 260 259 260 262 262 261 261 262
208 212 214 213 212 215 213 217 214 212 216 215 224 222 226 232 214 134 169 208 215 217 212 188 181 188 190 187 185 192 197 203 200 195 196 202 200 203 201 204 205 206 190 188 185 197 207 208 210 211 220 223 228 229 229 232 234 239 239 242 245 251 257 259 259 261 263 263 263 264 263 262 262 263
205 205 212 216 213 215 215 216 216 217 216 220 221 219 253 214 162 148 163 192 229 208 222 214 185 196 188 189 201 189 190 205 205 206 200 202 202 200 203 212 210 204 205 205 193 200 203 201 213 206 212 222 228 228 230 230 234 235 240 245 250 252 254 256 259 261 264 266 267 265 264 263 263 261
207 202 207 215 219 220 237 256 314 291 262 225 220 220 213 289 270 168 143 143 244 237 212 213 204 196 191 195 194 193 190 204 207 202 211 214 207 203 198 205 212 208 203 212 218 200 196 215 219 222 226 216 210 219 220 230 216 223 231 238 245 254 260 264 267 270 269 270 269 267 267 267 265 264
209 203 202 205 211 209 173 150 169 146 226 301 320 249 199 181 251 191 154 175 168 213 233 233 217 205 215 203 196 198 201 208 214 210 206 217 215 215 205 198 197 207 214 212 211 216 194 207 215 220 225 204 174 217 196 181 70 147 204 229 248 260 269 274 279 281 284 285 284 282 279 276 272 269
205 207 202 200 177 178 183 180 175 206 213 216 235 60 59 66 193 154 175 155 169 206 224 221 215 199 217 223 205 205 206 207 212 215 204 213 215 213 210 206 174 186 204 213 229 217 205 203 225 232 229 203 178 183 84 79 74 62 64 55 353 334 328 330 326 322 315 310 303 300 294 290 285 281
206 205 202 199 196 205 207 211 194 192 179 106 95 89 88 86 72 102 190 177 193 210 213 211 213 210 212 218 217 213 211 205 209 218 212 213 217 209 213 222 212 145 189 206 213 221 167 210 255 261 255 169 146 72 85 91 92 80 57 33 14 2 356 342 333 320 313 304 298 293 289 286 284 281
203 200 198 204 196 188 176 205 195 193 156 97 107 119 106 76 70 75 68 357 212 209 223 221 216 215 215 220 219 222 218 204 208 210 214 209 214 213 218 224 184 122 159 201 210 233 199 185 218 233 152 173 102 136 125 105 99 92 71 57 41 12 347 326 315 310 303 302 299 299 296 294 290 286
201 195 192 200 196 179 175 200 197 187 179 170 152 165 193 150 119 105 100 246 261 301 241 222 211 187 2 169 7 311 182 179 203 205 212 204 208 213 216 72 89 110 156 234 229 225 183 176 226 215 147 172 121 82 121 124 110 110 125 125 129 134 148 329 315 306 306 306 306 304 303 301 298 296
201 194 197 198 195 193 195 200 196 188 179 180 176 178 162 131 118 85 85 229 231 232 287 358 39 29 32 54 86 149 166 206 227 225 214 186 173 124 109 122 104 104 82 160 234 236 208 149 206 242 283 43 340 121 125 125 141 145 149 158 158 148 136 127 110 322 323 326 323 320 317 314 311 309
201 201 198 201 195 187 198 154 177 205 181 177 171 156 126 107 86 65 35 14 37 58 79 102 123 90 69 61 58 24 12 147 131 116 113 121 137 157 177 166 159 131 71 20 301 248 22 40 334 0 349 171 212 214 134 158 150 153 154 157 147 138 99 51 28 7 353 348 339 333 330 326 322 312
196 185 215 212 200 182 184 135 160 149 167 163 151 137 127 115 105 94 72 58 72 82 86 90 91 90 78 68 57 43 26 16 322 189 178 184 185 191 190 162 164 136 87 46 8 6 258 117 65 280 247 240 259 257 202 151 147 145 157 151 134 97 48 39 9 353 341 347 353 346 344 336 325 302
192 63 35 0 248 188 131 140 144 161 178 164 152 143 135 129 119 115 112 103 85 88 89 87 86 83 82 69 59 48 33 20 4 253 173 117 202 187 197 170 161 123 115 72 46 52 252 184 205 223 255 253 237 223 174 22 155 161 160 130 130 130 98 320 291 215 121 14 9 2 346 340 322 290
142 114 50 28 2 79 124 141 152 167 241 166 156 150 142 133 130 131 136 125 121 120 116 107 96 73 67 74 76 60 50 29 19 35 53 47 66 86 81 94 119 155 132 57 334 270 253 137 306 343 294 274 232 168 341 280 344 342 326 337 154 131 166 233 262 192 179 133 66 28 358 351 330 311
110 93 79 45 35 78 109 117 97 49 347 190 158 158 146 139 131 143 136 117 118 112 106 100 92 91 83 73 61 56 52 45 33 24 26 27 69 116 120 145 165 207 98 87 345 308 357 331 274 83 285 292 266 139 210 298 351 332 343 338 317 37 229 241 239 184 186 156 135 104 52 21 347 325
92 84 66 71 62 61 61 68 68 49 27 22 160 158 151 131 125 128 117 97 102 106 105 103 98 89 80 73 66 57 46 44 38 38 32 31 24 23 44 110 174 83 85 62 316 285 264 218 254 261 259 264 284 283 290 312 306 317 8 327 326 344 340 339 336 337 171 141 137 144 100 65 49 9
29 43 61 61 74 79 71 68 69 62 59 54 68 76 89 100 115 123 121 129 131 129 127 121 114 109 97 95 93 90 80 66 71 69 59 39 37 40 41 27 13 137 97 95 323 332 264 211 33 291 253 253 261 279 297 291 285 26 342 330 347 333 326 330 332 334 333 333 267 91 96 110 105 72
47 43 56 58 73 73 67 66 64 69 72 72 77 84 86 95 115 130 132 133 135 126 119 113 108 108 107 106 105 103 100 86 76 77 66 73 86 85 66 50 49 65 82 87 79 32 291 73 74 302 325 319 290 289 257 290 354 11 315 354 343 308 325 329 323 331 330 322 330 131 140 138 117 102
55 54 57 57 72 82 78 71 67 55 52 69 73 76 78 80 88 102 104 103 95 92 91 88 81 74 70 77 75 69 65 66 68 72 77 82 77 75 82 77 65 53 62 67 71 52 12 343 128 116 298 304 304 319 330 340 311 300 327 2 306 334 335 319 331 332 319 322 321 320 336 337 358 64
59 62 63 56 58 70 76 76 71 66 54 48 45 47 47 59 86 91 102 107 106 95 88 86 80 73 65 63 60 58 69 77 84 85 78 72 72 80 82 78 82 84 70 72 71 59 33 3 6 344 253 253 283 330 313 331 326 320 21 323 323 354 298 340 336 333 335 332 336 340 348 355 348 10
65 59 62 57 50 47 53 63 61 64 59 51 42 35 33 38 38 44 71 85 94 96 97 93 91 86 82 72 66 63 64 65 62 76 100 108 111 120 118 114 102 90 81 61 46 47 41 30 22 337 286 228 318 299 343 324 301 323 324 324 341 298 330 359 339 352 352 343 344 348 22 22 18 359
66 56 53 63 62 60 56 58 60 58 50 47 42 40 35 41 42 33 37 54 72 84 90 92 90 89 85 83 75 62 65 70 64 49 76 110 114 131 124 121 119 113 101 89 63 27 31 65 50 354 327 342 301 7 340 296 295 322 331 347 335 330 351 350 2 4 3 352 352 1 18 14 357 4
40 55 55 49 46 48 48 47 49 52 55 54 55 52 46 46 50 56 57 57 60 65 75 83 85 77 73 73 72 68 60 61 57 47 57 92 102 109 137 135 130 137 137 136 120 113 88 49 350 318 22 358 350 352 309 289 313 338 321 338 331 337 7 7 1 9 6 354 1 8 12 9 348 349
41 41 45 47 47 43 46 50 55 56 54 50 47 46 42 42 39 36 28 44 44 49 64 70 74 75 75 74 71 73 70 56 46 27 87 69 120 149 152 124 114 114 123 113 112 91 44 58 93 27 33 30 35 327 318 310 338 340 327 339 335 346 17 5 1 10 358 350 356 356 5 14 9 360
54 45 48 41 44 45 47 46 43 39 33 39 40 41 37 40 40 40 46 48 45 41 55 62 62 59 63 67 67 73 78 77 68 42 29 71 68 83 83 88 78 69 53 66 65 32 76 343 160 148 146 145 121 35 357 339 333 348 347 344 354 352 5 358 347 6 1 355 344 345 5 23 23 18
52 53 58 54 50 51 53 61 56 52 56 53 59 56 48 38 39 40 45 40 45 50 56 59 61 61 61 65 64 69 62 58 48 50 54 71 80 84 84 87 82 72 72 78 58 61 359 42 312 182 176 175 183 119 28 356 342 346 335 343 3 344 336 341 325 338 352 348 357 3 359 11 27 34
70 67 68 62 60 57 61 56 53 57 63 62 62 62 66 52 41 51 59 44 62 63 66 71 75 77 77 83 85 82 83 80 77 70 66 72 72 82 80 80 98 110 101 78 78 53 2 2 349 315 306 283 262 177 134 27 10 360 345 340 341 335 330 321 316 337 358 357 7 18 11 5 12 35
73 70 68 70 67 63 67 64 66 66 66 68 63 66 67 70 67 67 68 51 65 61 68 80 82 82 89 94 97 98 102 100 99 96 93 96 102 107 110 108 108 106 112 87 53 49 29 29 23 343 328 301 284 319 103 114 23 18 14 347 335 338 334 330 332 1 9 9 17 27 28 24 12 34
83 86 82 79 76 70 71 76 83 85 81 81 83 83 86 91 94 97 92 75 77 85 89 92 92 96 100 108 109 110 105 104 100 92 81 82 90 83 84 78 75 66 57 89 86 65 54 46 18 5 355 344 336 348 54 136 151 85 47 2 352 343 346 355 351 9 11 16 34 24 33 38 34 38
84 87 87 88 91 101 104 108 105 108 113 110 108 104 106 109 107 103 92 92 92 100 103 98 95 93 98 94 94 94 102 103 99 93 89 82 81 85 77 75 78 70 53 28 38 71 52 27 13 11 11 2 2 9 349 333 15 81 94 34 1 353 9 5 357 348 13 15 13 353 68 92 80 89
70 68 74 86 93 101 110 112 111 113 113 117 115 115 112 114 115 110 104 97 93 91 93 94 102 104 94 96 102 106 103 92 81 77 78 81 71 61 70 62 69 57 82 54 6 15 26 20 20 6 0 37 22 12 3 23 27 83 130 157 187 351 2 0 5 355 357 353 338 348 105 161 166 172
90 86 87 91 101 106 109 112 115 116 113 108 103 99 106 105 109 106 105 106 122 118 109 99 89 91 93 98 108 106 100 98 100 100 99 87 71 62 335 288 81 44 46 59 32 26 20 32 89 209 252 295 95 251 227 211 55 49 30 101 164 193 224 296 332 355 6 348 348 8 21 23 30 116
77 80 88 100 110 116 116 117 120 115 107 105 110 111 104 100 88 102 98 80 101 111 113 109 106 104 99 95 92 86 82 83 86 75 59 82 115 115 53 41 57 42 13 48 52 44 38 76 164 198 219 218 251 349 41 37 42 43 42 37 137 182 190 193 345 349 356 3 1 18 12 15 5 21
61 66 83 107 117 120 121 121 123 124 124 120 115 115 117 125 136 149 121 117 111 107 101 101 102 100 98 90 85 94 97 92 84 80 70 59 44 56 63 57 40 322 51 64 77 63 68 52 38 36 46 53 33 347 46 39 26 41 32 39 44 147 164 177 182 112 38 21 5 5 10 356 354 13
49 56 102 120 122 125 125 126 124 126 127 125 122 129 132 124 114 112 116 116 112 106 100 96 99 101 103 96 88 80 83 87 89 95 90 79 59 38 40 70 96 42 42 66 59 62 67 66 61 41 50 45 42 55 56 344 37 22 22 31 353 341 7 157 161 173 181 192 266 23 82 39 66 57
49 83 118 123 124 126 125 124 126 128 129 134 137 118 117 116 111 108 101 102 102 104 108 104 104 100 88 100 102 102 96 116 112 82 73 67 67 91 82 298 111 91 58 32 46 65 64 65 75 75 72 58 48 60 56 38 8 23 28 21 345 17 3 339 339 319 268 146 146 165 95 354 311 324